Location: Unspecified
(42.1150°N, 0.0000°E)
Time: 06:04:59
(UTC+00:00)

IRIDIUM 180 - Visible Passes

Search period start: 04 April 2026 00:00
Search period end: 14 April 2026 00:00
Orbit: 776 x 779 km, 86.4° (Epoch: 29 March)

Date Brightness Start Highest point End Pass type
(mag) Time Alt. Az. Time Alt. Az. Time Alt. Az.
4 Apr ? 23:20:06 10° NNE 23:20:25 11° NNE 23:20:25 11° NNE visible
5 Apr ? 01:00:10 10° NNW 01:00:54 14° NNW 01:00:54 14° NNW visible
6 Apr ? 00:26:25 10° N 00:27:31 17° N 00:27:31 17° N visible
6 Apr ? 23:52:56 10° N 23:54:08 17° N 23:54:08 17° N visible
7 Apr ? 23:19:45 10° NNE 23:20:45 15° NNE 23:20:45 15° NNE visible
8 Apr ? 01:00:33 10° NNW 01:01:14 13° NNW 01:01:14 13° NNW visible
8 Apr ? 22:47:04 10° NNE 22:47:23 11° NE 22:47:23 11° NE visible
9 Apr ? 00:26:35 10° NNW 00:27:51 18° NNW 00:27:51 18° NNW visible
9 Apr ? 23:52:56 10° N 23:54:29 20° N 23:54:29 20° N visible
10 Apr ? 23:19:34 10° N 23:21:07 19° NNE 23:21:07 19° NNE visible
11 Apr ? 01:01:06 10° NNW 01:01:36 12° NW 01:01:36 12° NW visible
11 Apr ? 22:46:33 10° NNE 22:47:46 15° NNE 22:47:46 15° NNE visible
12 Apr ? 00:26:52 10° NNW 00:28:14 17° NNW 00:28:14 17° NNW visible
12 Apr ? 22:14:13 10° NE 22:14:24 10° NE 22:14:24 10° NE visible
12 Apr ? 23:53:03 10° N 23:54:53 22° N 23:54:53 22° N visible
13 Apr ? 23:19:30 10° N 23:21:32 24° N 23:21:32 24° N visible
